User: anonymous   Login
Location: Rio Negrinho
(26.2394°S, 49.4999°W)
Time: 14:14:08
(UTC+00:00)
Language:

Cosmos 494 Rocket - Orbit

View from above orbital plane
View from above orbital plane
View from above satellite
View from above satellite

Ground track
Ground track

The orbit data is extracted from the following two-line orbital elements,

1 06061U 72043B   21173.89022352  .00000047  00000-0  22832-4 0  9996
2 06061  74.0568 351.0181 0019140 114.2550 246.0608 14.40621831569261
Epoch (UTC): 22 June 2021 21:21:55
Eccentricity: 0.0019140
inclination: 74.0568°
perigee height: 743 km
apogee height: 770 km
right ascension of ascending node: 351.0181°
argument of perigee: 114.2550°
revolutions per day: 14.40621831
mean anomaly at epoch: 246.0608°
orbit number at epoch: 56926

The dashed part of the orbit path shows where the satellite is in the earth's shadow,  

DLR